Flag for Germany Weather past 2 weeks in Schwäbisch Hall, Baden-Württemberg, Germany

Now
52 °F

Fog.


Feels Like: 52 °F
Forecast: 40 / 66 °F
Wind: 1 mph from East

Location: Oehringen


UV Index: 3 (Moderate)

Visibility: 4 mi


Pressure: 29.79 "Hg

Humidity: 81%

Dew point: 46 °F

Location of Schwäbisch HallLocation

Historic Weather in Schwäbisch Hall

°F

Schwäbisch Hall temperature yesterday

Maximum temperature yesterday: 63 °F (at 6:00 PM)
Minimum temperature yesterday: 37 °F (at 5:00 AM)
Average temperature yesterday: 48 °F

Past Weeks' High & Low Weather Summary

 TemperatureHumidityPressure
High72 °F (Apr 7, 4:00 PM)98% (Apr 19, 4:00 AM)30.42 "Hg (Apr 19, 4:00 AM)
Low32 °F (Apr 16, 7:00 AM)24% (Apr 17, 4:00 PM)29.78 "Hg (Apr 19, 6:00 PM)
Average52 °F66%30.09 "Hg
* Reported Apr 5 1:00 AM — Apr 20 1:00 AM, Schwäbisch Hall, Weather by CustomWeather, © 2014

Note: Actual official high and low records may vary slightly from our data, if they occured in-between our weather recording intervals... More about our weather records

Advertising

Historic Weather Conditions — Data for Previous 24 hours

 ConditionsComfort  
Time TempWeatherWind HumidityBarometerVisibility
1:00 AM
Apr 20
52 °FFog.1 mph81%29.79 "Hg4 mi
12:00 AM52 °FFog.3 mph81%29.80 "Hg4 mi
11:00 PM
Apr 19
50 °FFog.3 mph84%29.82 "Hg3 mi
10:00 PM52 °FOvercast.3 mph79%29.83 "Hg4 mi
9:00 PM54 °FOvercast.3 mph74%29.82 "Hg5 mi
8:00 PM57 °FPassing clouds.3 mph68%29.80 "Hg7 mi
7:00 PM62 °FPartly sunny.3 mph59%29.78 "Hg7 mi
6:00 PM63 °FSunny.3 mph57%29.78 "Hg7 mi
5:00 PM62 °FOvercast.3 mph55%29.79 "Hg8 mi
4:00 PM62 °FSunny.3 mph53%29.80 "Hg11 mi
3:00 PM57 °FPartly sunny.5 mph60%29.85 "Hg8 mi
2:00 PM55 °FOvercast.5 mph64%29.88 "Hg8 mi
1:00 PM54 °FPartly sunny.5 mph66%29.90 "Hg7 mi
12:00 PM48 °FOvercast.3 mph75%29.93 "Hg6 mi
11:00 AM46 °FOvercast.3 mph77%29.95 "Hg6 mi
10:00 AM44 °FPartly sunny.3 mph83%29.96 "Hg7 mi
9:00 AM40 °FOvercast.2 mph92%29.97 "Hg6 mi
8:00 AM39 °FOvercast.2 mph94%29.96 "Hg7 mi
7:00 AM38 °FOvercast.1 mph97%29.96 "Hg6 mi
6:00 AM37 °FOvercast.1 mph97%29.96 "Hg9 mi
5:00 AM37 °FOvercast.1 mph98%29.96 "Hg7 mi
4:00 AM38 °FOvercast.1 mph98%29.96 "Hg5 mi
3:00 AM38 °FOvercast.1 mph97%29.96 "Hg6 mi
2:00 AM39 °FOvercast.1 mph97%29.98 "Hg9 mi
Weather by CustomWeather, © 2014

See weather overview